FW9784 Weather Reports


Display with metric or nautical units.
time (UTC)temp
F
wind
direction
speed
MPH
gust
MPH
rain 1hr
in
rain 24hr
in
rain mn
in
humidity
%
barometer
mb
20260904090314 64 0 0.0 0.0 0.00 0.00 0.00 90 1012.1
20260904085810 64 0 0.0 0.0 0.00 0.00 0.00 90 1012.1
20260904085306 64 0 0.0 0.0 0.00 0.00 0.00 90 1012.1
20260904084807 65 0 0.0 0.0 0.00 0.00 0.00 89 1012.2
20260904084303 65 0 0.0 0.0 0.00 0.00 0.00 90 1012.2
20260904083808 65 0 0.0 0.0 0.00 0.00 0.00 90 1012.2
20260904083307 65 0 0.0 0.0 0.00 0.00 0.00 89 1012.2
20260904082802 65 0 0.0 0.0 0.00 0.00 0.00 89 1012.3
20260904082306 65 0 0.0 0.0 0.00 0.00 0.00 89 1012.3
20260904082131 65 0 0.0 1.0 0.00 0.00 0.00 89 1012.4
20260904082115 65 0 0.0 0.0 0.00 0.00 0.00 89 1012.3
20260904081919 65 0 0.0 0.0 0.00 0.00 0.00 89 1012.3
20260904081341 65 0 0.0 0.0 0.00 0.00 0.00 89 1012.3
20260904075758 65 0 0.0 1.0 0.00 0.00 0.00 89 1012.4
20260904075257 65 0 0.0 1.0 0.00 0.00 0.00 89 1012.4
20260904074755 65 0 0.0 2.0 0.00 0.00 0.00 89 1012.4
20260904074744 65 0 0.0 2.0 0.00 0.00 0.00 89 1012.4
20260904073801 65 0 0.0 0.0 0.00 0.00 0.00 89 1012.4
20260904073257 65 0 0.0 0.0 0.00 0.00 0.00 89 1012.4
20260904072822 65 0 0.0 0.0 0.00 0.00 0.00 89 1012.4
20260904072502 65 0 0.0 0.0 0.00 0.00 0.00 88 1012.3
20260904072330 65 0 0.0 0.0 0.00 0.00 0.00 88 1012.3
20260904071248 66 0 0.0 0.0 0.00 0.00 0.00 88 1012.4
20260904070800 66 0 0.0 0.0 0.00 0.00 0.00 88 1012.3
20260904070445 66 0 0.0 0.0 0.00 0.00 0.00 88 1012.4
20260904070301 66 0 0.0 0.0 0.00 0.00 0.00 88 1012.3
20260904065238 66 0 0.0 0.0 0.00 0.00 0.00 88 1012.3
20260904064755 66 0 0.0 0.0 0.00 0.00 0.00 88 1012.3
20260904064237 66 0 0.0 0.0 0.00 0.00 0.00 87 1012.3
20260904063754 66 0 0.0 0.0 0.00 0.00 0.00 87 1012.2
20260904063234 67 0 0.0 0.0 0.00 0.00 0.00 87 1012.2
20260904062744 67 0 0.0 0.0 0.00 0.00 0.00 87 1012.2
20260904062230 67 0 0.0 0.0 0.00 0.00 0.00 86 1012.2
20260904061743 67 0 0.0 0.0 0.00 0.00 0.00 86 1012.1
20260904061229 67 0 0.0 0.0 0.00 0.00 0.00 86 1012.1
20260904060833 67 0 0.0 0.0 0.00 0.00 0.00 85 1012.0
20260904060741 67 0 0.0 0.0 0.00 0.00 0.00 86 1012.1
20260904055730 68 0 0.0 0.0 0.00 0.00 0.00 85 1012.0
20260904055657 68 0 0.0 2.0 0.00 0.00 0.00 85 1012.0
20260904054954 68 0 0.0 4.0 0.00 0.00 0.00 85 1012.1
20260904054812 68 0 0.0 2.0 0.00 0.00 0.00 85 1012.0
20260904054449 68 0 0.0 0.0 0.00 0.00 0.00 85 1012.0
20260904053910 68 0 0.0 4.0 0.00 0.00 0.00 85 1012.1
20260904052745 68 214 1.0 2.0 0.00 0.00 0.00 85 1012.2
20260904052247 68 214 1.0 4.0 0.00 0.00 0.00 85 1012.1
20260904051804 68 214 2.0 5.0 0.00 0.00 0.00 85 1012.2
20260904051240 68 255 2.0 5.0 0.00 0.00 0.00 85 1012.3
20260904050811 68 0 1.0 4.0 0.00 0.00 0.00 84 1012.2
20260904050238 68 0 1.0 3.0 0.00 0.00 0.00 84 1012.2
20260904045811 68 0 1.0 4.0 0.00 0.00 0.00 84 1012.2
20260904045243 68 0 1.0 4.0 0.00 0.00 0.00 84 1012.2
20260904044859 68 255 1.0 3.0 0.00 0.00 0.00 85 1012.2
20260904044240 68 0 1.0 3.0 0.00 0.00 0.00 85 1012.0
20260904044230 68 263 1.0 4.0 0.00 0.00 0.00 85 1012.1
20260904043821 68 0 1.0 4.0 0.00 0.00 0.00 85 1012.1
20260904042743 68 0 1.0 3.0 0.00 0.00 0.00 85 1012.0
20260904042605 68 209 1.0 3.0 0.00 0.00 0.00 85 1012.1
20260904042557 68 223 1.0 5.0 0.00 0.00 0.00 85 1012.0
20260904041224 68 223 1.0 5.0 0.00 0.00 0.00 85 1012.1
20260904040729 68 227 2.0 3.0 0.00 0.00 0.00 85 1012.0
20260904040217 68 234 2.0 6.0 0.00 0.00 0.00 85 1012.0
20260904035802 69 298 2.0 6.0 0.00 0.00 0.00 85 1011.9
20260904035558 69 279 2.0 5.0 0.00 0.00 0.00 86 1011.8
20260904035326 69 0 2.0 6.0 0.00 0.00 0.00 85 1011.9
20260904034211 69 0 2.0 5.0 0.00 0.00 0.00 86 1011.8
20260904033722 69 224 2.0 5.0 0.00 0.00 0.00 86 1011.6
20260904033218 69 219 2.0 5.0 0.00 0.00 0.00 85 1011.7
20260904032824 69 253 2.0 6.0 0.00 0.00 0.00 85 1011.6
20260904032800 69 0 2.0 5.0 0.00 0.00 0.00 85 1011.7
20260904032334 69 0 2.0 6.0 0.00 0.00 0.00 85 1011.6
20260904031544 69 0 2.0 4.0 0.00 0.00 0.00 85 1011.5
20260904031211 69 0 2.0 4.0 0.00 0.00 0.00 85 1011.5
20260904030743 69 222 2.0 8.0 0.00 0.00 0.00 85 1011.5
20260904030218 69 252 2.0 8.0 0.00 0.00 0.00 85 1011.5
20260904025717 69 271 2.0 5.0 0.00 0.00 0.00 85 1011.3
20260904025521 69 261 2.0 8.0 0.00 0.00 0.00 84 1011.4
20260904025506 69 280 3.0 8.0 0.00 0.00 0.00 84 1011.4
20260904025427 70 276 3.0 8.0 0.00 0.00 0.00 84 1011.4
20260904025423 70 0 3.0 8.0 0.00 0.00 0.00 84 1011.3
20260904025248 69 0 2.0 5.0 0.00 0.00 0.00 85 1011.4
20260904025000 69 273 2.0 8.0 0.00 0.00 0.00 85 1011.4
20260904022212 70 198 2.0 8.0 0.00 0.00 0.00 83 1011.3
20260904021706 70 271 2.0 6.0 0.00 0.00 0.00 83 1011.3
20260904021532 71 0 2.0 6.0 0.00 0.00 0.00 82 1011.2
20260904021308 71 270 2.0 6.0 0.00 0.00 0.00 83 1011.3
20260904020213 71 202 2.0 6.0 0.00 0.00 0.00 82 1011.3
20260904015707 71 225 2.0 7.0 0.00 0.00 0.00 82 1011.3
20260904015213 71 269 2.0 7.0 0.00 0.00 0.00 81 1011.4
20260904014712 71 227 2.0 5.0 0.00 0.00 0.00 81 1011.3
20260904014502 71 265 3.0 6.0 0.00 0.00 0.00 81 1011.3
20260904014210 71 265 3.0 6.0 0.00 0.00 0.00 81 1011.3
20260904013925 71 223 3.0 9.0 0.00 0.00 0.00 81 1011.4
20260904013712 71 223 3.0 9.0 0.00 0.00 0.00 81 1011.4
20260904013206 71 261 4.0 9.0 0.00 0.00 0.00 81 1011.4
20260904012707 72 0 3.0 9.0 0.00 0.00 0.00 81 1011.4
20260904012211 72 0 3.0 6.0 0.00 0.00 0.00 81 1011.4
20260904011715 72 271 3.0 9.0 0.00 0.00 0.00 80 1011.3
20260904011206 72 0 4.0 9.0 0.00 0.00 0.00 80 1011.5
20260904010710 72 0 4.0 9.0 0.00 0.00 0.00 79 1011.5
20260904010630 73 0 4.0 9.0 0.00 0.00 0.00 78 1011.5
20260904005705 73 193 4.0 10.0 0.00 0.00 0.00 77 1011.5
20260904005449 74 282 5.0 11.0 0.00 0.00 0.00 74 1011.5
20260904005358 74 0 4.0 11.0 0.00 0.00 0.00 75 1011.5
20260904005243 74 0 3.0 10.0 0.00 0.00 0.00 75 1011.4
20260904004858 74 0 3.0 8.0 0.00 0.00 0.00 75 1011.4
20260904004317 74 0 4.0 11.0 0.00 0.00 0.00 75 1011.5
20260904003246 74 191 4.0 8.0 0.00 0.00 0.00 74 1011.6
20260904002704 74 0 4.0 9.0 0.00 0.00 0.00 75 1011.6
20260904002223 75 0 4.0 9.0 0.00 0.00 0.00 75 1011.6
20260904001704 75 0 4.0 9.0 0.00 0.00 0.00 76 1011.7
20260904001235 75 228 4.0 11.0 0.00 0.00 0.00 75 1011.7
20260904000705 74 271 5.0 13.0 0.00 0.00 0.00 76 1011.7
20260904000642 75 0 4.0 9.0 0.00 0.00 0.00 75 1011.8
20260904000321 75 0 4.0 13.0 0.00 0.00 0.00 75 1011.8
20260903235205 75 0 4.0 9.0 0.00 0.00 0.00 76 1011.8
20260903234919 75 0 4.0 10.0 0.00 0.00 0.00 76 1011.9
20260903234706 75 0 4.0 10.0 0.00 0.00 0.00 76 1011.9
20260903234216 75 269 4.0 10.0 0.00 0.00 0.00 76 1011.9
20260903233703 75 267 4.0 10.0 0.00 0.00 0.00 74 1011.8
20260903233201 75 216 4.0 11.0 0.00 0.00 0.00 74 1012.0
20260903232705 75 344 5.0 11.0 0.00 0.00 0.00 75 1012.0
20260903232321 76 0 4.0 10.0 0.00 0.00 0.00 75 1012.2
20260903232242 75 0 5.0 10.0 0.00 0.00 0.00 75 1012.0
20260903231859 76 0 4.0 10.0 0.00 0.00 0.00 74 1012.2
20260903230659 76 188 5.0 10.0 0.00 0.00 0.00 75 1012.1
20260903230158 76 0 5.0 10.0 0.00 0.00 0.00 75 1012.1
20260903225701 76 0 4.0 11.0 0.00 0.00 0.00 75 1012.1
20260903225201 76 0 4.0 11.0 0.00 0.00 0.00 74 1012.2
20260903224704 76 0 5.0 15.0 0.00 0.00 0.00 75 1012.2
20260903224307 76 186 5.0 12.0 0.00 0.00 0.00 75 1012.5
20260903224218 76 0 6.0 15.0 0.00 0.00 0.00 75 1012.4
20260903223840 76 211 6.0 14.0 0.00 0.00 0.00 74 1012.5
20260903223256 76 189 5.0 14.0 0.00 0.00 0.00 74 1012.5
20260903222202 76 269 5.0 13.0 0.00 0.00 0.00 74 1012.6
20260903221659 76 194 5.0 13.0 0.00 0.00 0.00 75 1012.7
20260903221200 76 0 6.0 13.0 0.00 0.00 0.00 74 1012.7
20260903221036 77 195 4.0 12.0 0.00 0.00 0.00 73 1012.8
20260903221031 77 0 5.0 14.0 0.00 0.00 0.00 73 1012.8
20260903220737 76 0 6.0 13.0 0.00 0.00 0.00 73 1012.7
20260903215153 77 223 5.0 14.0 0.00 0.00 0.00 73 1012.9
20260903214654 77 211 5.0 11.0 0.00 0.00 0.00 73 1013.0
20260903214223 77 231 4.0 12.0 0.00 0.00 0.00 73 1012.9
20260903214210 77 193 5.0 12.0 0.00 0.00 0.00 73 1012.9
20260903213154 76 254 5.0 12.0 0.00 0.00 0.00 74 1013.0
20260903212654 76 260 6.0 15.0 0.00 0.00 0.00 74 1013.0
20260903212154 76 0 5.0 15.0 0.00 0.00 0.00 73 1013.0
20260903211700 76 192 5.0 13.0 0.00 0.00 0.00 73 1013.0
20260903211154 76 0 6.0 13.0 0.00 0.00 0.00 74 1012.9
20260903210650 76 0 5.0 14.0 0.00 0.00 0.00 73 1012.9
20260903210212 76 0 5.0 10.0 0.00 0.00 0.00 73 1013.1
20260903210156 76 299 5.0 14.0 0.00 0.00 0.00 73 1013.1
20260903205146 76 0 5.0 12.0 0.00 0.00 0.00 73 1013.2
20260903204645 76 0 6.0 12.0 0.00 0.00 0.00 74 1013.2
20260903204143 76 0 6.0 12.0 0.00 0.00 0.00 74 1013.2
20260903203643 76 0 6.0 13.0 0.00 0.00 0.00 74 1013.1
20260903203145 76 0 5.0 13.0 0.00 0.00 0.00 73 1013.1
20260903202648 76 0 5.0 15.0 0.00 0.00 0.00 74 1013.1
20260903202152 76 282 5.0 15.0 0.00 0.00 0.00 73 1013.1
20260903201644 76 0 5.0 12.0 0.00 0.00 0.00 73 1013.2
20260903201144 77 248 5.0 10.0 0.00 0.00 0.00 73 1013.3
20260903200652 77 0 5.0 11.0 0.00 0.00 0.00 73 1013.2
20260903200143 77 0 5.0 11.0 0.00 0.00 0.00 72 1013.3
20260903195648 77 0 5.0 10.0 0.00 0.00 0.00 73 1013.3
20260903195407 76 0 5.0 13.0 0.00 0.00 0.00 73 1013.4
20260903195142 76 0 5.0 13.0 0.00 0.00 0.00 73 1013.4
20260903194644 76 294 5.0 13.0 0.00 0.00 0.00 73 1013.4
20260903194142 77 215 5.0 10.0 0.00 0.00 0.00 72 1013.5
20260903193917 77 207 4.0 10.0 0.00 0.00 0.00 72 1013.5
20260903193149 76 198 4.0 11.0 0.00 0.00 0.00 72 1013.5
20260903192643 76 256 4.0 11.0 0.00 0.00 0.00 73 1013.6
20260903192142 76 255 4.0 11.0 0.00 0.00 0.00 74 1013.6
20260903191646 76 255 5.0 11.0 0.00 0.00 0.00 73 1013.7
20260903191141 76 284 5.0 11.0 0.00 0.00 0.00 73 1013.8
20260903190948 76 192 4.0 10.0 0.00 0.00 0.00 73 1013.8
20260903190325 76 197 4.0 10.0 0.00 0.00 0.00 73 1013.9
20260903190211 76 0 4.0 9.0 0.00 0.00 0.00 72 1013.8
20260903185142 76 248 5.0 10.0 0.00 0.00 0.00 72 1014.0
20260903184646 76 253 4.0 9.0 0.00 0.00 0.00 72 1014.0
20260903184140 76 263 4.0 9.0 0.00 0.00 0.00 72 1014.0
20260903183645 76 211 4.0 8.0 0.00 0.00 0.00 72 1014.1
20260903183141 76 263 4.0 8.0 0.00 0.00 0.00 72 1014.1
20260903182643 76 260 4.0 8.0 0.00 0.00 0.00 72 1014.1
20260903182140 76 251 3.0 8.0 0.00 0.00 0.00 72 1014.2
20260903181802 77 0 3.0 7.0 0.00 0.00 0.00 71 1014.2
20260903181642 77 207 3.0 7.0 0.00 0.00 0.00 72 1014.2
20260903180641 77 200 3.0 7.0 0.00 0.00 0.00 69 1014.2
20260903180137 77 107 3.0 7.0 0.00 0.00 0.00 68 1014.2
20260903175648 76 88 2.0 9.0 0.00 0.00 0.00 70 1014.2
20260903175611 76 261 2.0 5.0 0.00 0.00 0.00 70 1014.2
20260903175357 76 223 2.0 6.0 0.00 0.00 0.00 69 1014.3
20260903175205 76 0 2.0 9.0 0.00 0.00 0.00 69 1014.2
20260903173643 75 88 2.0 5.0 0.00 0.00 0.00 72 1014.2
20260903173147 74 184 2.0 5.0 0.00 0.00 0.00 73 1014.2
20260903172638 74 210 2.0 5.0 0.00 0.00 0.00 73 1014.2
20260903172141 74 219 1.0 5.0 0.00 0.00 0.00 73 1014.2
20260903171638 74 325 2.0 6.0 0.00 0.00 0.00 73 1014.3
20260903171233 74 126 2.0 6.0 0.00 0.00 0.00 73 1014.3
20260903171140 74 123 2.0 6.0 0.00 0.00 0.00 72 1014.3
20260903170201 74 116 2.0 5.0 0.00 0.00 0.00 74 1014.2
20260903165704 73 160 1.0 6.0 0.00 0.00 0.00 75 1014.2
20260903165317 72 182 0.0 3.0 0.00 0.00 0.00 78 1014.2
20260903165151 73 82 1.0 6.0 0.00 0.00 0.00 76 1014.2
20260903164332 71 86 2.0 5.0 0.00 0.00 0.00 79 1014.3
20260903164216 72 194 1.0 5.0 0.00 0.00 0.00 79 1014.2
20260903163159 71 78 2.0 4.0 0.00 0.00 0.00 79 1014.3
20260903162656 71 111 1.0 4.0 0.00 0.00 0.00 80 1014.3
20260903162324 70 67 2.0 4.0 0.00 0.00 0.00 81 1014.4
20260903162210 71 70 2.0 4.0 0.00 0.00 0.00 81 1014.3
20260903161433 70 85 2.0 4.0 0.00 0.00 0.00 82 1014.3
20260903161231 70 120 2.0 4.0 0.00 0.00 0.00 82 1014.3
20260903160341 70 121 1.0 4.0 0.00 0.00 0.00 82 1014.3
20260903160228 70 165 2.0 4.0 0.00 0.00 0.00 82 1014.3
20260903155139 69 188 0.0 3.0 0.00 0.00 0.00 83 1014.3
20260903154641 69 115 1.0 3.0 0.00 0.00 0.00 83 1014.3
20260903154138 69 195 1.0 3.0 0.00 0.00 0.00 83 1014.3
20260903153644 69 150 1.0 3.0 0.00 0.00 0.00 84 1014.3
20260903153141 69 69 1.0 3.0 0.00 0.00 0.00 83 1014.3
20260903152650 69 55 2.0 6.0 0.00 0.00 0.00 83 1014.2
20260903152423 69 111 2.0 7.0 0.00 0.00 0.00 84 1014.1
20260903152232 69 103 2.0 7.0 0.00 0.00 0.00 83 1014.1
20260903151536 69 176 1.0 4.0 0.00 0.00 0.00 85 1014.0
20260903151306 69 107 1.0 6.0 0.00 0.00 0.00 84 1014.1
20260903150544 69 82 2.0 4.0 0.00 0.00 0.00 85 1014.1
20260903145907 68 117 1.0 3.0 0.00 0.00 0.00 86 1014.0
20260903145726 68 159 2.0 4.0 0.00 0.00 0.00 85 1014.1
20260903144643 68 117 0.0 0.0 0.00 0.00 0.00 87 1014.0
20260903144352 68 106 0.0 0.0 0.00 0.00 0.00 89 1013.9
20260903144139 68 106 0.0 0.0 0.00 0.00 0.00 89 1013.9
20260903143629 67 106 0.0 0.0 0.00 0.00 0.00 89 1013.9
20260903143137 67 106 0.0 0.0 0.00 0.00 0.00 89 1013.8
20260903142636 67 106 0.0 0.0 0.00 0.00 0.00 89 1013.8
20260903142130 67 106 0.0 0.0 0.00 0.00 0.00 89 1013.8
20260903141633 67 106 0.0 0.0 0.00 0.00 0.00 89 1013.7
20260903141133 67 106 0.0 0.0 0.00 0.00 0.00 89 1013.6
20260903140629 67 106 0.0 0.0 0.00 0.00 0.00 89 1013.6
20260903140134 67 106 0.0 0.0 0.00 0.00 0.00 89 1013.5
20260903135631 67 106 0.0 2.0 0.00 0.00 0.00 89 1013.5
20260903135129 66 106 1.0 3.0 0.00 0.00 0.00 89 1013.5
20260903134635 67 106 0.0 3.0 0.00 0.00 0.00 89 1013.4
20260903134437 67 106 0.0 2.0 0.00 0.00 0.00 88 1013.5
20260903134231 67 107 0.0 1.0 0.00 0.00 0.00 88 1013.4
20260903133141 67 106 1.0 3.0 0.00 0.00 0.00 88 1013.5
20260903132624 67 106 1.0 5.0 0.00 0.00 0.00 89 1013.5
20260903132125 67 79 1.0 5.0 0.00 0.00 0.00 89 1013.5
20260903131640 67 78 2.0 5.0 0.00 0.00 0.00 89 1013.6
20260903131632 67 81 2.0 4.0 0.00 0.00 0.00 89 1013.6
20260903130625 67 85 2.0 5.0 0.00 0.00 0.00 89 1013.6
20260903130127 67 116 2.0 7.0 0.00 0.00 0.00 89 1013.5
20260903125626 67 116 2.0 7.0 0.00 0.00 0.00 89 1013.6
20260903125121 67 94 2.0 4.0 0.00 0.00 0.00 89 1013.5
20260903124618 67 102 2.0 4.0 0.00 0.00 0.00 89 1013.5
20260903124122 67 102 2.0 4.0 0.00 0.00 0.00 90 1013.5
20260903123619 67 102 1.0 4.0 0.00 0.00 0.00 90 1013.5
20260903123116 67 117 1.0 3.0 0.00 0.00 0.00 89 1013.5
20260903122616 67 151 0.0 2.0 0.00 0.00 0.00 89 1013.5
20260903122116 67 131 0.0 2.0 0.00 0.00 0.00 89 1013.5
20260903121754 67 164 0.0 3.0 0.00 0.00 0.00 89 1013.5
20260903121750 67 156 1.0 5.0 0.00 0.00 0.00 90 1013.6
20260903121648 67 175 0.0 2.0 0.00 0.00 0.00 89 1013.5
20260903120407 67 126 1.0 6.0 0.00 0.00 0.00 91 1013.6
20260903120357 67 116 1.0 3.0 0.00 0.00 0.00 91 1013.7
20260903120203 67 172 1.0 5.0 0.00 0.00 0.00 90 1013.6
20260903115813 67 185 1.0 6.0 0.00 0.00 0.00 90 1013.5
20260903115553 67 124 1.0 6.0 0.00 0.00 0.00 91 1013.7
20260903115232 67 182 1.0 6.0 0.00 0.00 0.00 91 1013.7
20260903113613 67 113 1.0 4.0 0.00 0.00 0.00 91 1013.7
20260903112608 67 175 1.0 3.0 0.00 0.00 0.00 91 1013.6
20260903112358 67 74 1.0 3.0 0.00 0.00 0.00 90 1013.7
20260903112139 67 74 1.0 3.0 0.00 0.00 0.00 90 1013.7
20260903111605 67 112 1.0 3.0 0.00 0.00 0.00 91 1013.7
20260903111116 66 112 0.0 3.0 0.00 0.00 0.00 91 1013.7
20260903110603 66 112 1.0 4.0 0.00 0.00 0.00 91 1013.7
20260903110118 66 113 1.0 4.0 0.00 0.00 0.00 91 1013.7
20260903105740 65 203 0.0 1.0 0.00 0.00 0.00 90 1013.7
20260903105636 66 203 0.0 2.0 0.00 0.00 0.00 90 1013.8
20260903105137 66 203 0.0 2.0 0.00 0.00 0.00 90 1013.7
20260903104109 65 203 0.0 0.0 0.00 0.00 0.00 89 1013.8
20260903103758 66 203 0.0 2.0 0.00 0.00 0.00 89 1013.8
20260903103618 65 203 0.0 0.0 0.00 0.00 0.00 89 1013.8
20260903103244 65 203 0.0 0.0 0.00 0.00 0.00 89 1013.8
20260903102646 65 203 0.0 0.0 0.00 0.00 0.00 88 1013.8
20260903102000 66 203 0.0 2.0 0.00 0.00 0.00 89 1013.9
20260903101055 65 203 0.0 0.0 0.00 0.00 0.00 88 1013.9
20260903100942 65 203 0.0 0.0 0.00 0.00 0.00 88 1013.9
20260903100753 65 203 0.0 0.0 0.00 0.00 0.00 88 1013.9
20260903095553 65 203 0.0 0.0 0.00 0.00 0.00 88 1013.9
20260903095051 65 203 0.0 0.0 0.00 0.00 0.00 88 1013.9
20260903094819 65 203 0.0 0.0 0.00 0.00 0.00 88 1013.9
20260903094052 65 203 0.0 0.0 0.00 0.00 0.00 88 1013.9
20260903093549 65 203 0.0 0.0 0.00 0.00 0.00 88 1014.0
20260903093247 67 203 0.0 0.0 0.00 0.00 0.00 86 1014.5
20260903093205 66 203 0.0 0.0 0.00 0.00 0.00 87 1014.5
20260903093155 66 203 0.0 0.0 0.00 0.00 0.00 86 1014.5
20260903093143 66 203 0.0 0.0 0.00 0.00 0.00 87 1014.6
20260903093130 66 203 0.0 0.0 0.00 0.00 0.00 86 1014.5
20260903093111 65 203 0.0 0.0 0.00 0.00 0.00 88 1014.0
20260903092736 65 203 0.0 0.0 0.00 0.00 0.00 87 1014.1
20260903092413 65 203 0.0 0.0 0.00 0.00 0.00 87 1014.2
20260903092405 65 203 0.0 0.0 0.00 0.00 0.00 87 1014.2
20260903092312 66 203 0.0 0.0 0.00 0.00 0.00 87 1014.4
20260903092134 65 203 0.0 0.0 0.00 0.00 0.00 87 1014.1
20260903091615 65 203 0.0 0.0 0.00 0.00 0.00 87 1014.1
20260903091257 65 203 0.0 0.0 0.00 0.00 0.00 88 1014.2